15min,AgWx,beryljct,423,26JAN2021:00:00:00,27.8,12.75,25.0,24.6,24.4,24.6,24.3,87,88,87,0.396,21.2,21.5,21.1,7.453,7.0,189,6.2,8.8,0.00001,0.00002,32.6,34.1,9,0,0,.,6.84,0.00,0.00
15min,AgWx,beryljct,423,26JAN2021:00:15:00,27.6,12.76,24.7,24.4,24.4,24.6,24.3,90,91,88,0.404,21.8,22.0,21.4,4.231,5.9,186,5.8,8.1,-0.00001,-0.00000,32.6,34.1,9,0,0,.,6.84,0.00,0.00
15min,AgWx,beryljct,423,26JAN2021:00:30:00,27.5,12.75,24.8,24.3,24.3,24.4,24.2,90,91,89,0.396,21.8,22.1,21.5,4.845,5.0,175,7.5,6.9,-0.00001,-0.00001,32.6,34.1,8,0,0,.,6.84,0.00,0.00
15min,AgWx,beryljct,423,26JAN2021:00:45:00,27.3,12.73,24.6,24.2,24.2,24.4,24.2,88,89,88,0.388,21.2,21.6,21.0,6.927,6.3,177,8.7,8.8,0.00000,0.00001,32.6,34.1,8,0,0,.,6.84,0.00,0.00
15min,AgWx,beryljct,423,26JAN2021:01:00:00,27.0,12.73,24.8,24.3,24.2,24.4,24.1,87,88,87,0.387,21.0,21.1,20.9,6.664,7.1,195,7.7,10.1,0.00001,0.00002,32.6,34.1,8,0,0,.,6.84,0.00,0.00
15min,AgWx,beryljct,423,26JAN2021:01:15:00,26.9,12.72,24.9,24.5,24.5,24.7,24.3,86,87,86,0.386,20.9,21.1,20.8,7.519,7.5,192,8.0,10.6,0.00002,0.00003,32.6,34.1,8,0,0,.,6.84,0.00,0.00
15min,AgWx,beryljct,423,26JAN2021:01:30:00,26.8,12.72,24.6,24.1,24.4,24.6,24.1,85,86,85,0.379,20.7,20.9,20.5,9.1,8.9,182,6.8,12.3,0.00003,0.00004,32.6,34.1,8,0,0,.,6.84,0.00,0.00
15min,AgWx,beryljct,423,26JAN2021:01:45:00,26.6,12.72,24.3,23.8,24.0,24.2,23.8,86,87,86,0.380,20.5,20.6,20.3,12.85,10.4,189,5.4,13.3,0.00003,0.00004,32.6,34.1,8,0,0,.,6.84,0.00,0.00
15min,AgWx,beryljct,423,26JAN2021:02:00:00,26.3,12.7,24.0,23.7,23.5,23.9,23.4,88,88,87,0.376,20.4,20.7,20.1,11.25,10.0,184,6.6,14.4,0.00002,0.00003,32.6,34.1,9,0,0,.,6.84,0.00,0.00
15min,AgWx,beryljct,423,26JAN2021:02:15:00,26.1,12.7,24.2,23.8,23.6,23.8,23.5,88,88,86,0.376,20.5,20.6,20.2,9.16,10.9,192,6.5,14.3,0.00003,0.00003,32.6,34.1,8,0,0,.,6.84,0.00,0.00
15min,AgWx,beryljct,423,26JAN2021:02:30:00,25.9,12.69,24.0,23.6,23.8,23.9,23.5,85,86,85,0.367,20.0,20.3,19.7,10.02,10.1,190,5.9,12.8,0.00003,0.00004,32.6,34.1,8,0,0,.,6.84,0.00,0.00
15min,AgWx,beryljct,423,26JAN2021:02:45:00,25.8,12.68,23.8,23.4,23.5,23.7,23.3,84,85,84,0.360,19.5,19.8,19.3,7.212,10.1,190,4.9,13.6,0.00004,0.00005,32.6,34.1,9,0,0,.,6.84,0.00,0.00
15min,AgWx,beryljct,423,26JAN2021:03:00:00,25.5,12.68,23.7,23.1,23.2,23.5,22.8,84,84,83,0.354,19.0,19.3,18.6,6.862,7.1,201,11,9.4,0.00002,0.00003,32.6,34.1,8,0,0,.,6.84,0.00,0.00
15min,AgWx,beryljct,423,26JAN2021:03:15:00,25.3,12.66,23.4,22.9,22.9,23.2,22.8,84,84,83,0.352,18.8,19.0,18.7,4.932,5.2,206,6.8,7.3,0.00001,0.00002,32.6,34.1,8,0,0,.,6.84,0.00,0.00
15min,AgWx,beryljct,423,26JAN2021:03:30:00,25.0,12.65,23.1,22.4,22.6,23.0,22.3,85,85,84,0.348,18.6,18.8,18.4,5.524,4.2,207,9.6,5.7,-0.00000,0.00000,32.6,34.1,8,0,0,.,6.84,0.00,0.00
15min,AgWx,beryljct,423,26JAN2021:03:45:00,24.6,12.63,23.0,22.3,22.4,22.6,22.1,84,85,84,0.345,18.3,18.7,17.9,7.936,5.6,214,3.9,7.9,0.00001,0.00002,32.6,34.1,8,0,0,.,6.84,0.00,0.00
15min,AgWx,beryljct,423,26JAN2021:04:00:00,24.3,12.61,23.5,22.9,22.4,22.9,22.1,84,84,82,0.345,18.1,18.4,17.8,11.03,7.3,219,5.8,11.6,0.00002,0.00003,32.6,34.1,8,0,0,.,6.84,0.00,0.00
15min,AgWx,beryljct,423,26JAN2021:04:15:00,24.3,12.61,23.2,23.0,23.0,23.1,22.9,82,82,81,0.342,18.2,18.3,18.0,8.9,10.2,219,5.1,12.1,0.00005,0.00006,32.6,34.1,9,0,0,.,6.84,0.00,0.00
15min,AgWx,beryljct,423,26JAN2021:04:30:00,24.3,12.59,23.1,22.9,22.9,23.0,22.8,81,82,81,0.340,18.0,18.2,17.9,8.07,9.6,204,7.9,11.6,0.00005,0.00006,32.6,34.1,8,0,0,.,6.84,0.00,0.00
15min,AgWx,beryljct,423,26JAN2021:04:45:00,24.2,12.6,22.8,22.1,22.5,23.0,22.0,82,83,81,0.336,17.8,18.0,17.6,9.16,8.5,193,5.9,11.7,0.00004,0.00005,32.6,34.1,8,0,0,.,6.83,0.00,0.00
15min,AgWx,beryljct,423,26JAN2021:05:00:00,24.0,12.58,22.5,22.3,22.1,22.3,21.9,83,83,83,0.337,17.7,17.9,17.5,9.78,8.6,187,7.0,11.5,0.00003,0.00004,32.6,34.1,9,0,0,.,6.83,0.00,0.00
15min,AgWx,beryljct,423,26JAN2021:05:15:00,23.9,12.58,22.2,22.0,22.3,22.5,22.0,83,83,82,0.335,17.8,18.0,17.5,6.752,8.8,188,13,11.0,0.00004,0.00005,32.6,34.1,8,0,0,.,6.84,0.00,0.00
15min,AgWx,beryljct,423,26JAN2021:05:30:00,23.8,12.57,22.7,22.4,22.1,22.5,21.8,83,84,81,0.334,17.7,17.9,17.5,6.445,7.5,220,6.4,10.9,0.00003,0.00004,32.6,34.1,9,0,0,.,6.83,0.00,0.00
15min,AgWx,beryljct,423,26JAN2021:05:45:00,23.7,12.54,22.3,22.0,22.1,22.4,21.9,81,82,81,0.329,17.3,17.6,17.0,7.782,7.0,206,5.4,8.8,0.00003,0.00004,32.6,34.1,9,0,0,.,6.83,0.00,0.00
15min,AgWx,beryljct,423,26JAN2021:06:00:00,23.5,12.54,21.2,20.9,21.7,22.0,20.9,82,82,81,0.318,16.9,17.2,16.4,5.524,6.8,197,7.2,8.7,0.00003,0.00004,32.6,34.1,9,0,0,.,6.83,0.00,0.00
15min,AgWx,beryljct,423,26JAN2021:06:15:00,23.2,12.53,19.5,19.7,20.0,20.9,19.0,85,87,83,0.319,16.1,16.6,14.8,3.814,4.0,180,10,5.6,-0.00001,-0.00000,32.6,34.1,9,0,0,.,6.83,0.00,0.00
15min,AgWx,beryljct,423,26JAN2021:06:30:00,22.9,12.53,21.8,21.5,21.1,21.6,19.6,85,87,83,0.328,17.2,17.5,16.3,7.98,7.3,199,5.2,9.1,0.00002,0.00003,32.6,34.1,9,0,0,.,6.83,0.00,0.00
15min,AgWx,beryljct,423,26JAN2021:06:45:00,22.9,12.53,21.5,21.3,21.6,21.7,21.3,83,83,83,0.326,17.2,17.3,17.0,6.818,7.9,196,6.9,10.0,0.00003,0.00004,32.6,34.1,8,0,0,.,6.83,0.00,0.00
15min,AgWx,beryljct,423,26JAN2021:07:00:00,22.8,12.52,19.4,19.1,20.3,21.3,19.1,85,86,83,0.305,16.4,17.0,15.3,6.752,5.7,164,11,7.7,0.00009,0.00016,32.6,34.1,8,0,0,.,6.83,0.00,0.00
15min,AgWx,beryljct,423,26JAN2021:07:15:00,22.5,12.52,19.2,18.9,19.0,19.3,18.6,86,87,85,0.307,15.5,15.8,15.1,5.787,5.5,170,7.8,7.0,0.00008,0.00013,32.6,34.1,8,0,0,.,6.84,0.00,0.00
15min,AgWx,beryljct,423,26JAN2021:07:30:00,22.1,12.52,20.8,20.3,19.6,20.4,18.7,87,88,86,0.322,16.4,17.1,15.4,5.963,5.8,173,8.0,7.1,0.00008,0.00014,32.6,34.1,8,0,0,.,6.84,0.00,0.00
15min,AgWx,beryljct,423,26JAN2021:07:45:00,21.9,12.49,18.0,17.4,18.1,20.3,17.1,86,88,84,0.291,14.6,16.7,13.9,3.354,5.2,144,5.3,6.5,0.00008,0.00013,32.6,34.1,8,3,0,.,6.83,0.00,0.00
15min,AgWx,beryljct,423,26JAN2021:08:00:00,21.5,12.5,19.5,18.7,17.7,18.7,17.1,88,88,87,0.307,14.7,15.6,13.9,0.417,1.8,19,64,3.5,0.00011,0.00014,32.6,34.1,9,30,0,.,6.84,0.00,0.00
15min,AgWx,beryljct,423,26JAN2021:08:15:00,21.6,12.5,20.0,19.8,19.6,20.1,18.8,85,87,84,0.308,15.9,16.2,15.6,0.702,0.1,355,0.0,0.7,0.00014,0.00016,32.6,34.1,8,42,0,.,6.83,0.00,0.00
15min,AgWx,beryljct,423,26JAN2021:08:30:00,21.9,12.49,18.5,17.9,18.8,19.7,17.9,85,86,84,0.292,15.0,15.6,14.4,2.17,1.2,102,31,2.2,0.00026,0.00029,32.6,34.1,8,92,0,.,6.83,0.00,0.00
15min,AgWx,beryljct,423,26JAN2021:08:45:00,22.3,12.46,19.4,18.5,17.5,18.5,16.9,88,89,86,0.308,14.4,15.7,13.9,1.644,1.8,87,6.8,2.5,0.00033,0.00037,32.6,34.1,9,133,0,.,6.83,0.00,0.00
15min,AgWx,beryljct,423,26JAN2021:09:00:00,22.9,12.45,18.9,18.9,18.7,19.2,18.0,86,88,85,0.303,15.3,15.9,14.6,0.702,1.0,84,17,1.9,0.00045,0.00049,32.6,34.1,8,175,0,.,6.83,0.00,0.00
15min,AgWx,beryljct,423,26JAN2021:09:15:00,23.7,12.45,22.9,22.1,19.4,22.1,18.0,85,87,84,0.348,15.7,18.5,13.8,3.793,3.1,182,12,4.2,0.00047,0.00053,32.7,34.1,9,181,0,.,6.83,0.00,0.00
15min,AgWx,beryljct,423,26JAN2021:09:30:00,24.8,12.44,22.9,22.4,22.2,22.9,21.5,83,86,81,0.339,17.9,18.6,16.5,1.732,2.6,204,11,4.2,0.00065,0.00073,32.6,34.1,9,234,0,.,6.83,0.00,0.00
15min,AgWx,beryljct,423,26JAN2021:09:45:00,26.4,12.47,23.7,23.3,23.0,23.5,22.3,81,83,80,0.344,18.1,18.7,17.5,2.389,2.8,251,6.3,3.5,0.00080,0.00089,32.6,34.1,8,287,0,.,6.83,0.00,0.00
15min,AgWx,beryljct,423,26JAN2021:10:00:00,28.5,13.02,25.0,24.5,23.9,25.0,23.4,79,80,76,0.350,18.2,19.3,17.3,5.787,2.2,223,28,6.1,0.00106,0.00117,32.6,34.1,9,374,0,.,6.83,0.00,0.00
15min,AgWx,beryljct,423,26JAN2021:10:15:00,30.1,14.83,25.0,24.9,24.6,25.0,24.1,78,79,77,0.356,18.6,19.1,18.2,4.428,4.9,206,6.3,6.5,0.00097,0.00112,32.6,34.1,8,350,0,.,6.83,0.00,0.00
15min,AgWx,beryljct,423,26JAN2021:10:30:00,31.1,14.78,25.8,25.4,25.1,25.7,24.6,77,78,76,0.355,18.9,19.3,18.4,5.108,4.8,203,6.2,6.1,0.00116,0.00132,32.6,34.1,9,417,0,.,6.83,0.00,0.00
15min,AgWx,beryljct,423,26JAN2021:10:45:00,32.4,14.85,23.0,22.8,23.6,25.8,22.1,79,82,75,0.338,18.0,19.3,16.8,1.622,3.1,141,23,6.4,0.00130,0.00144,32.6,34.1,8,473,0,.,6.82,0.00,0.00
15min,AgWx,beryljct,423,26JAN2021:11:00:00,34.0,14.79,23.8,22.8,23.0,25.4,22.1,80,82,75,0.337,17.8,20.1,16.8,1.271,1.0,125,3.0,2.2,0.00139,0.00150,32.6,34.1,8,474,0,.,6.83,0.00,0.00
15min,AgWx,beryljct,423,26JAN2021:11:15:00,35.5,14.69,27.3,27.0,25.6,27.1,22.9,77,81,72,0.359,19.4,20.5,17.9,6.555,2.8,201,29,7.8,0.00121,0.00134,32.6,34.1,8,395,0,.,6.82,0.00,0.00
15min,AgWx,beryljct,423,26JAN2021:11:30:00,35.4,14.68,25.9,25.6,25.9,27.0,25.6,78,79,72,0.372,20.0,20.4,19.1,4.954,6.5,291,13,9.3,0.00101,0.00119,32.6,34.1,8,348,0,.,6.82,0.00,0.01
15min,AgWx,beryljct,423,26JAN2021:11:45:00,34.8,14.65,26.0,25.8,25.7,25.9,25.6,78,79,77,0.364,19.7,20.2,19.4,5.546,5.4,283,13,6.8,0.00107,0.00123,32.6,34.1,9,362,0,.,6.82,0.00,0.02
15min,AgWx,beryljct,423,26JAN2021:12:00:00,34.4,14.71,26.6,26.2,25.9,26.2,25.7,77,78,77,0.372,19.7,20.1,19.4,9.03,5.6,269,6.5,9.1,0.00103,0.00119,32.6,34.1,8,342,0,.,6.82,0.00,0.01
15min,AgWx,beryljct,423,26JAN2021:12:15:00,33.9,14.71,26.8,26.6,26.4,26.6,26.1,75,77,74,0.370,19.6,19.9,19.3,7.607,8.2,264,8.4,10.0,0.00102,0.00123,32.6,34.1,9,347,0,.,6.82,0.00,0.01
15min,AgWx,beryljct,423,26JAN2021:12:30:00,33.5,14.72,26.7,26.4,26.5,26.6,26.4,74,77,72,0.355,19.3,20.2,18.7,10.41,11.0,257,4.8,13.7,0.00103,0.00128,32.7,34.1,8,361,0,.,6.83,0.00,0.00
15min,AgWx,beryljct,423,26JAN2021:12:45:00,33.1,14.77,27.4,27.1,26.8,27.2,26.4,74,75,72,0.369,19.5,20.0,19.0,8.79,9.4,243,8.5,12.7,0.00107,0.00131,32.6,34.1,8,372,0,.,6.82,0.00,0.00
15min,AgWx,beryljct,423,26JAN2021:13:00:00,33.1,14.28,27.8,27.3,27.1,27.4,26.9,72,74,70,0.357,19.2,19.9,18.5,10.63,10.4,236,8.4,14.3,0.00118,0.00146,32.6,34.1,9,427,0,.,6.83,0.00,0.01
15min,AgWx,beryljct,423,26JAN2021:13:15:00,33.3,14.27,28.2,27.8,27.6,28.1,27.2,70,72,68,0.357,19.1,19.7,18.5,11.44,12.0,226,5.9,15.7,0.00151,0.00183,32.7,34.1,9,589,0,.,6.82,0.00,0.00
15min,AgWx,beryljct,423,26JAN2021:13:30:00,33.6,14.26,27.8,27.3,27.6,28.0,26.9,69,70,68,0.354,18.7,19.2,18.4,11.88,11.3,207,9.5,13.8,0.00132,0.00164,32.6,34.1,9,499,0,.,6.82,0.00,0.00
15min,AgWx,beryljct,423,26JAN2021:13:45:00,34.1,14.26,28.0,28.1,28.1,28.5,27.3,70,74,68,0.375,19.5,20.9,18.8,12.8,11.1,192,6.8,13.4,0.00187,0.00221,32.6,34.1,8,710,0,.,6.83,0.00,0.00
15min,AgWx,beryljct,423,26JAN2021:14:00:00,34.6,14.25,28.3,28.2,28.1,28.5,27.8,70,72,68,0.373,19.6,20.6,18.7,12.56,11.6,203,6.6,13.7,0.00173,0.00207,32.6,34.1,8,666,0,.,6.82,0.00,0.00
15min,AgWx,beryljct,423,26JAN2021:14:15:00,34.9,14.28,28.3,28.1,28.0,28.2,27.7,69,71,67,0.369,19.1,20.0,18.4,11.84,11.5,198,7.9,14.6,0.00155,0.00189,32.6,34.1,9,590,0,.,6.82,0.00,0.00
15min,AgWx,beryljct,423,26JAN2021:14:30:00,35.2,14.23,28.1,27.9,28.3,28.7,27.9,70,71,67,0.367,19.8,20.5,18.7,14.71,11.3,196,8.4,14.7,0.00153,0.00186,32.6,34.1,9,577,0,.,6.82,0.00,0.00
15min,AgWx,beryljct,423,26JAN2021:14:45:00,35.1,14.33,27.9,27.6,27.6,28.0,27.5,72,74,71,0.380,19.9,20.5,19.4,12.28,13.5,191,6.3,16.3,0.00114,0.00144,32.6,34.1,9,447,0,.,6.82,0.00,0.00
15min,AgWx,beryljct,423,26JAN2021:15:00:00,34.4,14.29,27.9,27.5,27.4,27.8,27.2,75,78,73,0.398,20.4,21.6,19.8,13.35,14.0,187,6.4,17.7,0.00095,0.00122,32.6,34.1,8,380,0,.,6.82,0.00,0.00
15min,AgWx,beryljct,423,26JAN2021:15:15:00,33.9,14.36,27.1,27.0,27.3,27.6,27.0,78,79,77,0.386,21.2,21.8,20.7,16.97,13.0,179,8.4,18.0,0.00085,0.00109,32.6,34.1,9,354,0,.,6.82,0.00,0.00
15min,AgWx,beryljct,423,26JAN2021:15:30:00,33.2,14.3,27.4,27.1,27.0,27.2,26.9,77,78,77,0.383,20.9,21.3,20.7,12.47,14.0,186,6.1,17.1,0.00067,0.00090,32.6,34.1,8,276,0,.,6.82,0.00,0.00
15min,AgWx,beryljct,423,26JAN2021:15:45:00,32.7,14.39,27.3,26.9,27.0,27.3,26.8,76,77,76,0.383,20.6,21.2,20.3,14.8,14.0,189,6.2,16.6,0.00063,0.00087,32.7,34.1,8,252,0,.,6.82,0.00,0.00
15min,AgWx,beryljct,423,26JAN2021:16:00:00,32.1,14.38,27.4,26.9,26.8,26.9,26.7,77,78,76,0.379,20.7,21.0,20.5,12.41,13.4,187,6.3,16.0,0.00053,0.00075,32.7,34.1,9,213,0,.,6.82,0.00,0.00
15min,AgWx,beryljct,423,26JAN2021:16:15:00,31.6,14.34,26.8,26.6,26.8,27.0,26.6,77,78,76,0.374,20.6,20.8,20.1,14.29,13.5,191,6.1,16.8,0.00046,0.00068,32.7,34.1,8,178,0,.,6.82,0.00,0.00
15min,AgWx,beryljct,423,26JAN2021:16:30:00,31.0,13.63,26.8,26.5,26.5,26.6,26.4,76,77,75,0.375,20.1,20.4,19.7,13.28,13.5,193,6.3,16.3,0.00039,0.00061,32.6,34.1,8,145,0,.,6.82,0.00,0.00
15min,AgWx,beryljct,423,26JAN2021:16:45:00,30.5,13.27,26.8,26.4,26.4,26.5,26.2,77,78,75,0.364,20.0,20.4,19.5,14.42,13.4,190,5.1,16.6,0.00032,0.00053,32.7,34.1,8,116,0,.,6.82,0.00,0.00
15min,AgWx,beryljct,423,26JAN2021:17:00:00,29.8,13.19,26.5,26.2,26.3,26.4,26.2,77,78,75,0.374,19.9,20.3,19.5,9.25,12.4,184,5.2,15.4,0.00010,0.00012,32.6,34.1,9,71,0,.,6.82,0.00,0.00
15min,AgWx,beryljct,423,26JAN2021:17:15:00,29.3,13.1,26.3,25.9,26.1,26.2,25.9,77,78,77,0.374,20.0,20.2,19.9,10.37,8.7,179,6.8,10.9,0.00006,0.00008,32.7,34.1,8,40,0,.,6.82,0.00,0.00
15min,AgWx,beryljct,423,26JAN2021:17:30:00,28.8,13.04,25.9,25.6,25.8,26.0,25.6,79,80,78,0.375,20.2,20.4,20.0,10.02,10.2,187,5.2,12.6,0.00005,0.00006,32.6,34.1,9,21,0,.,6.82,0.00,0.00
15min,AgWx,beryljct,423,26JAN2021:17:45:00,28.3,12.99,25.8,25.4,25.4,25.6,25.3,80,81,80,0.373,20.2,20.3,20.1,7.103,8.8,183,5.8,12.2,0.00003,0.00004,32.7,34.1,9,8,0,.,6.82,0.00,0.00
15min,AgWx,beryljct,423,26JAN2021:18:00:00,28.0,12.95,25.5,25.2,25.3,25.4,25.1,81,82,80,0.378,20.3,20.5,20.1,5.656,6.5,199,6.3,8.4,-0.00000,0.00000,32.7,34.1,9,2,0,.,6.82,0.00,0.00
15min,AgWx,beryljct,423,26JAN2021:18:15:00,27.6,12.93,25.5,25.1,25.1,25.2,25.0,82,83,82,0.378,20.4,20.6,20.3,2.806,4.1,195,12,6.1,-0.00005,-0.00005,32.7,34.1,9,0,0,.,6.82,0.00,0.00
15min,AgWx,beryljct,423,26JAN2021:18:30:00,27.4,12.93,25.2,25.0,25.0,25.2,24.8,83,84,82,0.382,20.6,20.8,20.4,2.959,3.5,190,8.3,5.0,-0.00006,-0.00007,32.7,34.1,8,0,0,.,6.82,0.00,0.00
15min,AgWx,beryljct,423,26JAN2021:18:45:00,27.2,12.91,25.7,25.2,25.1,25.2,24.9,83,83,82,0.380,20.6,20.7,20.5,4.735,4.4,200,6.8,5.4,-0.00004,-0.00004,32.7,34.1,9,0,0,.,6.82,0.00,0.00
15min,AgWx,beryljct,423,26JAN2021:19:00:00,27.1,12.9,25.5,25.2,25.2,25.3,25.1,82,82,81,0.378,20.5,20.6,20.3,3.332,3.7,197,5.6,4.8,-0.00005,-0.00006,32.7,34.1,9,0,0,.,6.82,0.00,0.00
15min,AgWx,beryljct,423,26JAN2021:19:15:00,27.0,12.9,25.1,24.8,24.9,25.2,24.8,84,85,82,0.387,20.7,21.0,20.4,4.889,3.8,217,12,5.0,-0.00006,-0.00006,32.7,34.1,8,0,0,.,6.82,0.00,0.00
15min,AgWx,beryljct,423,26JAN2021:19:30:00,26.9,12.89,25.6,24.9,24.9,25.0,24.8,85,86,85,0.391,21.1,21.3,20.9,5.349,4.4,204,6.4,5.7,-0.00005,-0.00005,32.6,34.1,8,0,0,.,6.82,0.00,0.00
15min,AgWx,beryljct,423,26JAN2021:19:45:00,26.9,12.87,25.2,24.8,25.1,25.2,24.8,85,86,85,0.393,21.3,21.5,21.2,2.959,3.9,196,8.4,5.4,-0.00006,-0.00006,32.7,34.1,9,0,0,.,6.82,0.00,0.00
15min,AgWx,beryljct,423,26JAN2021:20:00:00,26.8,12.87,24.8,24.5,24.7,25.0,24.5,88,89,86,0.399,21.6,21.7,21.4,3.135,2.8,161,5.0,3.8,-0.00009,-0.00011,32.7,34.1,8,0,0,.,6.83,0.00,0.00
15min,AgWx,beryljct,423,26JAN2021:20:15:00,26.8,12.87,24.8,24.6,24.6,24.8,24.4,89,89,88,0.399,21.7,21.9,21.6,2.696,3.1,170,12,4.6,-0.00008,-0.00010,32.6,34.1,8,0,0,.,6.82,0.00,0.00
15min,AgWx,beryljct,423,26JAN2021:20:30:00,26.6,12.86,24.9,24.5,24.6,24.7,24.5,90,90,89,0.405,21.9,22.1,21.7,2.455,2.3,178,11,3.0,-0.00010,-0.00013,32.7,34.1,9,0,0,.,6.82,0.00,0.00
15min,AgWx,beryljct,423,26JAN2021:20:45:00,26.6,12.85,24.9,24.6,24.7,24.8,24.5,90,91,90,0.408,22.2,22.4,22.0,1.863,2.8,181,9.0,4.2,-0.00010,-0.00011,32.7,34.1,8,0,0,.,6.83,0.00,0.00
15min,AgWx,beryljct,423,26JAN2021:21:00:00,26.5,12.84,24.7,24.3,24.4,24.7,24.2,91,91,90,0.402,22.1,22.3,21.9,2.565,2.0,175,5.6,3.6,-0.00012,-0.00015,32.7,34.1,9,0,0,.,6.83,0.00,0.00
15min,AgWx,beryljct,423,26JAN2021:21:15:00,26.4,12.82,25.4,25.0,24.7,25.1,24.3,91,91,90,0.417,22.4,22.8,21.9,5.568,4.2,169,9.4,7.5,-0.00007,-0.00008,32.7,34.1,9,0,0,.,6.83,0.00,0.00
15min,AgWx,beryljct,423,26JAN2021:21:30:00,26.5,12.83,25.3,25.0,25.0,25.1,24.8,91,91,91,0.416,22.7,22.8,22.5,5.305,5.2,177,7.0,6.7,-0.00006,-0.00006,32.7,34.1,9,0,0,.,6.83,0.00,0.00
15min,AgWx,beryljct,423,26JAN2021:21:45:00,26.5,12.81,25.0,24.7,24.9,25.1,24.7,91,92,91,0.413,22.6,22.7,22.5,4.143,5.0,188,6.8,6.3,-0.00006,-0.00006,32.7,34.1,9,0,0,.,6.83,0.00,0.00
15min,AgWx,beryljct,423,26JAN2021:22:00:00,26.5,12.81,24.8,24.4,24.6,24.7,24.4,92,92,91,0.407,22.5,22.6,22.1,4.647,3.9,200,14,5.2,-0.00008,-0.00009,32.7,34.1,9,0,0,.,6.83,0.00,0.00
15min,AgWx,beryljct,423,26JAN2021:22:15:00,26.4,12.79,25.3,24.9,24.6,24.9,24.4,91,92,90,0.410,22.4,22.6,22.2,3.354,3.4,212,8.1,4.7,-0.00009,-0.00010,32.7,34.1,8,0,0,.,6.83,0.00,0.00
15min,AgWx,beryljct,423,26JAN2021:22:30:00,26.4,12.8,25.7,25.2,25.1,25.3,24.9,89,90,89,0.413,22.4,22.7,22.2,4.626,4.3,183,13,5.6,-0.00007,-0.00007,32.7,34.1,9,0,0,.,6.83,0.00,0.00
15min,AgWx,beryljct,423,26JAN2021:22:45:00,26.5,12.79,25.5,25.2,25.2,25.3,25.1,90,91,89,0.418,22.7,22.9,22.5,4.582,5.1,176,8.0,7.3,-0.00006,-0.00006,32.7,34.1,9,0,0,.,6.83,0.00,0.00
15min,AgWx,beryljct,423,26JAN2021:23:00:00,26.7,12.79,26.1,25.6,25.4,25.7,25.1,90,91,89,0.419,22.9,23.0,22.7,5.393,5.5,172,8.1,7.2,-0.00005,-0.00005,32.7,34.1,9,0,0,.,6.83,0.00,0.00
15min,AgWx,beryljct,423,26JAN2021:23:15:00,26.9,12.79,26.1,25.7,25.7,25.8,25.6,89,89,88,0.416,22.7,22.9,22.6,5.919,6.3,177,9.1,8.6,-0.00004,-0.00004,32.7,34.1,9,0,0,.,6.83,0.00,0.00
15min,AgWx,beryljct,423,26JAN2021:23:30:00,27.0,12.77,26.3,25.9,25.9,26.0,25.7,87,88,87,0.413,22.6,22.8,22.5,9.43,8.7,181,6.8,12.7,-0.00001,-0.00000,32.7,34.1,8,0,0,.,6.83,0.00,0.00
15min,AgWx,beryljct,423,26JAN2021:23:45:00,27.1,12.78,26.3,25.8,25.7,25.9,25.6,87,88,87,0.411,22.5,22.6,22.4,6.949,7.4,181,6.7,8.9,-0.00002,-0.00002,32.7,34.1,8,0,0,.,6.83,0.00,0.00
15min,AgWx,bigpiney,439,26JAN2021:00:00:00,4.2,12.5,4.3,3.7,4.1,4.9,3.5,85,87,84,0.153,0.7,1.8,0.2,2.083,1.7,309,23,2.9,-0.00004,-0.00005,25.2,28.8,9,0,0,0.0,0.08,0.00,0.00
15min,AgWx,bigpiney,439,26JAN2021:00:15:00,4.7,12.47,4.5,3.8,3.7,3.9,3.6,85,85,85,0.154,0.2,0.5,0.1,3.442,3.3,321,9.7,4.5,-0.00002,-0.00002,25.2,28.8,9,0,0,0.0,0.08,0.00,0.00
15min,AgWx,bigpiney,439,26JAN2021:00:30:00,5.2,12.47,5.5,4.8,4.5,4.9,3.8,86,86,85,0.162,1.1,1.5,0.4,0,1.7,331,8.9,4.3,-0.00004,-0.00005,25.1,28.8,9,0,0,0.0,0.08,0.00,0.00
15min,AgWx,bigpiney,439,26JAN2021:00:45:00,5.8,12.47,6.4,5.5,5.4,6.0,4.9,86,86,84,0.168,2.0,2.7,1.3,2.368,2.3,303,53,4.2,-0.00003,-0.00004,25.1,28.7,9,0,0,0.0,0.08,0.00,0.00
15min,AgWx,bigpiney,439,26JAN2021:01:00:00,6.3,12.45,4.0,3.8,4.9,5.8,3.8,85,86,85,0.153,1.5,2.6,0.2,6.752,4.1,90,51,7.1,-0.00001,-0.00001,25.1,28.8,9,0,0,0.0,0.08,0.00,0.00
15min,AgWx,bigpiney,439,26JAN2021:01:15:00,6.4,12.45,3.2,2.6,3.1,3.8,2.6,85,85,85,0.146,-0.5,0.2,-0.9,3.727,6.1,110,4.7,7.8,-0.00000,0.00000,25.1,28.8,9,0,0,0.0,0.08,0.00,0.00
15min,AgWx,bigpiney,439,26JAN2021:01:30:00,6.4,12.43,3.4,2.9,2.7,2.9,2.6,85,85,85,0.148,-0.7,-0.5,-0.9,2.17,3.1,108,8.9,5.5,-0.00002,-0.00002,25.0,28.7,9,0,0,0.0,0.08,0.00,0.00
15min,AgWx,bigpiney,439,26JAN2021:01:45:00,6.4,12.42,3.4,2.8,2.8,2.9,2.8,85,85,85,0.147,-0.6,-0.5,-0.7,1.03,1.7,91,24,3.2,-0.00004,-0.00004,25.0,28.7,9,0,0,0.0,0.08,0.00,0.00
15min,AgWx,bigpiney,439,26JAN2021:02:00:00,6.3,12.41,3.4,2.9,2.8,2.9,2.8,85,86,85,0.148,-0.6,-0.5,-0.7,0,0.8,68,19,1.9,-0.00005,-0.00007,25.0,28.6,9,0,0,0.0,0.08,0.00,0.00
15min,AgWx,bigpiney,439,26JAN2021:02:15:00,6.3,12.4,3.6,3.2,3.0,3.2,2.9,85,86,85,0.151,-0.4,-0.1,-0.5,1.447,0.9,101,16,2.2,-0.00005,-0.00007,25.0,28.6,9,0,0,0.0,0.08,0.00,0.00
15min,AgWx,bigpiney,439,26JAN2021:02:30:00,6.4,12.39,4.1,3.6,3.3,3.6,3.1,85,86,85,0.154,-0.1,0.3,-0.3,0,0.5,154,47,1.5,-0.00006,-0.00009,25.0,28.6,9,0,0,0.0,0.08,0.00,0.00
15min,AgWx,bigpiney,439,26JAN2021:02:45:00,6.5,12.38,4.5,3.9,3.8,3.9,3.5,86,86,85,0.156,0.4,0.5,0.1,0.877,1.4,209,9.4,2.3,-0.00004,-0.00005,25.0,28.5,9,0,0,0.0,0.08,0.00,0.00
15min,AgWx,bigpiney,439,26JAN2021:03:00:00,6.6,12.37,4.9,4.3,4.1,4.3,3.9,85,86,85,0.158,0.7,0.9,0.5,0.11,1.3,225,7.0,2.5,-0.00005,-0.00006,25.0,28.5,9,0,0,0.0,0.08,0.00,0.00
15min,AgWx,bigpiney,439,26JAN2021:03:15:00,6.8,12.36,5.1,4.7,4.5,4.7,4.3,85,86,85,0.160,1.1,1.3,0.9,0,0.1,219,3.5,0.7,-0.00008,-0.00012,25.0,28.5,9,0,0,0.0,0.08,0.00,0.00
15min,AgWx,bigpiney,439,26JAN2021:03:30:00,7.0,12.35,6.0,5.4,5.0,5.4,4.6,86,86,85,0.167,1.6,2.1,1.2,0,0.1,247,1.9,1.0,-0.00008,-0.00012,25.0,28.5,9,0,0,0.0,0.08,0.00,0.00
15min,AgWx,bigpiney,439,26JAN2021:03:45:00,7.2,12.34,7.2,6.5,5.9,6.5,5.4,86,87,86,0.178,2.7,3.4,2.1,0.767,0.1,270,1.4,0.8,-0.00008,-0.00013,25.0,28.5,9,0,0,0.0,0.08,0.00,0.00
15min,AgWx,bigpiney,439,26JAN2021:04:00:00,7.5,12.35,6.2,5.8,6.6,6.9,5.8,86,87,85,0.170,3.3,3.7,2.3,1.008,1.1,296,56,1.9,-0.00005,-0.00007,25.0,28.5,9,0,0,0.0,0.08,0.00,0.00
15min,AgWx,bigpiney,439,26JAN2021:04:15:00,7.7,12.34,5.8,5.3,5.7,6.2,5.3,86,86,86,0.166,2.4,3.0,2.0,1.535,1.0,12,15,1.5,-0.00005,-0.00007,25.0,28.5,9,0,0,0.0,0.08,0.00,0.00
15min,AgWx,bigpiney,439,26JAN2021:04:30:00,7.8,12.33,6.0,5.6,5.6,5.9,5.3,86,87,86,0.169,2.3,2.8,1.9,1.403,1.0,353,62,1.9,-0.00006,-0.00007,25.0,28.5,9,0,0,0.0,0.08,0.00,0.00
15min,AgWx,bigpiney,439,26JAN2021:04:45:00,7.9,12.33,6.3,5.8,5.7,5.8,5.5,86,86,86,0.171,2.4,2.6,2.2,0.767,0.3,189,29,1.3,-0.00007,-0.00011,25.0,28.4,9,0,0,0.0,0.08,0.00,0.00
15min,AgWx,bigpiney,439,26JAN2021:05:00:00,7.9,12.33,6.6,6.1,5.9,6.1,5.6,86,87,86,0.173,2.7,2.9,2.3,0.745,0.9,191,20,2.1,-0.00006,-0.00008,25.1,28.5,9,0,0,0.0,0.08,0.00,0.00
15min,AgWx,bigpiney,439,26JAN2021:05:15:00,8.0,12.32,6.5,6.1,6.2,6.3,6.1,86,86,86,0.172,2.8,3.0,2.7,0.986,0.9,231,16,1.4,-0.00006,-0.00008,25.1,28.4,9,0,0,0.0,0.08,0.00,0.00
15min,AgWx,bigpiney,439,26JAN2021:05:30:00,8.0,12.32,6.2,5.7,5.9,6.2,5.5,86,86,85,0.170,2.5,2.9,2.0,0,0.4,351,31,1.4,-0.00007,-0.00010,25.1,28.5,9,0,0,0.0,0.08,0.00,0.00
15min,AgWx,bigpiney,439,26JAN2021:05:45:00,8.0,12.32,6.6,6.0,5.7,6.1,5.3,86,87,86,0.173,2.4,2.9,2.0,1.907,1.3,242,19,2.3,-0.00005,-0.00006,25.1,28.4,9,0,0,0.0,0.08,0.00,0.00
15min,AgWx,bigpiney,439,26JAN2021:06:00:00,8.1,12.32,6.6,6.1,6.1,6.2,5.9,86,87,86,0.174,2.9,3.0,2.7,1.074,2.6,298,15,3.5,-0.00003,-0.00003,25.1,28.4,9,0,0,0.0,0.08,0.00,0.00
15min,AgWx,bigpiney,439,26JAN2021:06:15:00,8.2,12.32,7.3,6.9,6.6,7.1,6.1,87,87,86,0.180,3.4,4.0,2.8,1.754,1.4,261,33,2.6,-0.00005,-0.00006,25.1,28.4,9,0,0,0.0,0.08,0.00,0.00
15min,AgWx,bigpiney,439,26JAN2021:06:30:00,8.2,12.32,7.8,7.4,6.9,7.4,6.7,86,86,86,0.184,3.6,4.1,3.3,5.349,3.3,225,6.7,5.3,-0.00002,-0.00002,25.2,28.4,9,0,0,0.0,0.08,0.00,0.00
15min,AgWx,bigpiney,439,26JAN2021:06:45:00,8.5,12.31,8.8,8.6,8.1,8.6,7.4,86,87,86,0.193,4.8,5.3,4.1,2.653,4.3,238,6.8,5.8,-0.00001,-0.00001,25.2,28.4,9,0,0,0.0,0.08,0.00,0.00
15min,AgWx,bigpiney,439,26JAN2021:07:00:00,8.9,12.31,8.3,7.9,8.1,8.5,7.9,85,86,85,0.187,4.6,5.1,4.5,1.929,2.6,236,10,4.1,-0.00003,-0.00003,25.2,28.4,9,0,0,0.0,0.08,0.00,0.00
15min,AgWx,bigpiney,439,26JAN2021:07:15:00,9.2,12.32,9.1,8.3,7.9,8.4,7.8,86,87,86,0.192,4.6,5.2,4.4,2.938,1.9,234,7.4,3.0,-0.00004,-0.00005,25.2,28.4,9,0,0,0.0,0.08,0.00,0.00
15min,AgWx,bigpiney,439,26JAN2021:07:30:00,9.2,12.31,9.1,8.5,8.4,8.9,7.8,86,87,85,0.192,5.1,5.7,4.1,2.324,2.6,222,12,3.3,-0.00003,-0.00004,25.3,28.4,9,0,0,0.0,0.08,0.00,0.00
15min,AgWx,bigpiney,439,26JAN2021:07:45:00,9.2,12.33,7.3,7.1,7.5,8.6,6.9,86,87,84,0.181,4.2,5.3,3.2,1.118,0.6,249,20,2.3,-0.00006,-0.00009,25.3,28.4,9,2,0,0.0,0.08,0.00,0.00
15min,AgWx,bigpiney,439,26JAN2021:08:00:00,9.0,12.36,5.9,5.1,5.6,7.0,4.9,86,86,84,0.165,2.2,3.8,1.2,1.6,0.8,245,23,2.7,-0.00004,-0.00003,25.3,28.4,9,7,0,0.0,0.08,0.00,0.00
15min,AgWx,bigpiney,439,26JAN2021:08:15:00,8.9,12.46,6.7,6.3,5.8,6.3,5.1,87,87,86,0.176,2.7,3.3,1.9,1.622,1.7,284,15,2.7,-0.00002,-0.00001,25.3,28.4,9,19,0,0.0,0.08,0.00,0.00
15min,AgWx,bigpiney,439,26JAN2021:08:30:00,8.9,12.7,7.3,6.7,6.5,6.7,6.2,87,87,86,0.179,3.3,3.6,3.1,1.315,1.2,287,12,1.7,0.00001,0.00002,25.3,28.4,9,39,0,0.0,0.08,0.00,0.00
15min,AgWx,bigpiney,439,26JAN2021:08:45:00,9.1,13.08,7.9,7.3,6.9,7.3,6.6,87,87,86,0.184,3.7,4.2,3.3,0,1.2,286,4.8,2.2,0.00007,0.00008,25.4,28.4,9,60,0,0.0,0.08,0.00,0.00
15min,AgWx,bigpiney,439,26JAN2021:09:00:00,9.7,13.71,6.7,6.4,6.9,7.5,6.4,86,87,85,0.174,3.6,4.3,2.9,0.592,0.1,48,1.1,1.0,0.00011,0.00012,25.4,28.5,9,82,0,0.0,0.08,0.00,0.00